User: anonymous   Login
Location: Theydon Bois
(51.6750°N, 0.1050°E)
Time: 11:01:36
(UTC+00:00)
Language:

Cosmos 1626 - Orbit

View from above orbital plane
View from above orbital plane
View from above satellite
View from above satellite

Ground track
Ground track

The orbit data is extracted from the following two-line orbital elements,

1 15494U 85009A   18048.95677407 +.00001001 +00000-0 +41222-4 0  9998
2 15494 082.4815 003.6969 0000669 290.6337 069.4828 15.22964568805881
Epoch (UTC): 17 February 2018 22:57:45
Eccentricity: 0.0000669
inclination: 82.4815°
perigee height: 496 km
apogee height: 497 km
right ascension of ascending node: 3.6969°
argument of perigee: 290.6337°
revolutions per day: 15.22964568
mean anomaly at epoch: 69.4828°
orbit number at epoch: 80588

The dashed part of the orbit path shows where the satellite is in the earth's shadow,  

DLR